Weather History for Wheeler AAF, HI

Change the Weather History Date:

Friday, January 25, 2013

  Actual Average Record
Temperature  
Mean Temperature 67 °F -  
Max Temperature 75 °F 74 °F 80 °F (2005)
Min Temperature 59 °F 61 °F 53 °F (2000)
Cooling Degree Days 2    
Growing Degree Days 17 (Base 50)    
Moisture  
Dew Point 63 °F    
Average Humidity 82    
Maximum Humidity 95    
Minimum Humidity 61    
Precipitation  
Precipitation 0.08 in - - ()
Sea Level Pressure  
Sea Level Pressure 30.01 in    
Wind  
Wind Speed 2 mph (North)    
Max Wind Speed 6 mph    
Max Gust Speed -    
Visibility 10 miles    
Events Rain    
Averages and records for this station are not official NWS values.
T = Trace of Precipitation, MM = Missing Value Source: NWS Daily Summary

Daily Weather History Graph

Daily Weather History Graph

Search for Another Location

Airport:

Trip Planner

Search our weather history database for the weather conditions in past years. The results will help you decide how hot, cold, wet, or windy it might be!

Date:

Astronomy

Jan. 25, 2013 Rise Set
Actual Time 7:11 AM HST 6:17 PM HST
Civil Twilight 6:48 AM HST 6:41 PM HST
Nautical Twilight 6:21 AM HST 7:08 PM HST
Astronomical Twilight 5:54 AM HST 7:34 PM HST
Moon 5:24 PM HST (1/25) 5:58 AM HST (1/25)
Length of Visible Light 11h 53m
Length of Day
11h 06m
Waxing Gibbous, 98% of the Moon is Illuminated
Jan 25
Waxing Gibbous
Jan 26
Full
Feb 3
Last Quarter
Feb 9
New
Feb 17
First Quarter

Hourly Weather History & Observations

Time (HST) Temp. Dew Point Humidity Pressure Visibility Wind Dir Wind Speed Gust Speed Precip Events Conditions
12:55 AM 62.4 °F 60.8 °F 94% 30.04 in 10.0 mi Calm Calm - N/A   Clear
1:55 AM 61.3 °F 59.5 °F 94% 30.03 in 10.0 mi NNW 4.6 mph - N/A   Clear
2:55 AM 60.8 °F 59.2 °F 94% 30.01 in 10.0 mi Calm Calm - N/A   Clear
3:55 AM 59.7 °F 58.3 °F 95% 30.00 in 10.0 mi Calm Calm - N/A   Clear
4:55 AM 59.9 °F 58.5 °F 95% 30.00 in 10.0 mi Calm Calm - N/A   Clear
5:55 AM 59.0 °F 57.6 °F 95% 30.01 in 10.0 mi NW 3.5 mph - N/A   Clear
6:55 AM 60.3 °F 58.6 °F 94% 30.02 in 10.0 mi Calm Calm - N/A   Clear
7:55 AM 61.5 °F 59.9 °F 94% 30.04 in 10.0 mi NNW 4.6 mph - N/A   Clear
8:55 AM 67.5 °F 64.0 °F 89% 30.05 in 10.0 mi North 3.5 mph - N/A   Clear
9:55 AM 71.6 °F 64.4 °F 78% 30.06 in 10.0 mi North 4.6 mph - N/A   Clear
10:55 AM 74.3 °F 63.0 °F 68% 30.05 in 10.0 mi NW 3.5 mph - N/A   Clear
11:55 AM 75.4 °F 61.0 °F 61% 30.04 in 10.0 mi Variable 4.6 mph - N/A   Partly Cloudy
12:55 PM 75.6 °F 61.5 °F 62% 30.01 in 10.0 mi Calm Calm - N/A   Mostly Cloudy
1:46 PM 75.2 °F 64.4 °F 69% 30.00 in 10.0 mi Calm Calm - N/A   Overcast
1:48 PM 75.2 °F 64.4 °F 69% 29.99 in 10.0 mi NW 4.6 mph - N/A   Overcast
1:55 PM 74.8 °F 63.3 °F 67% 29.99 in 10.0 mi NNW 5.8 mph - N/A   Overcast
2:11 PM 75.2 °F 62.6 °F 65% 29.99 in 10.0 mi NNE 5.8 mph - N/A   Overcast
2:25 PM 75.2 °F 64.4 °F 69% 29.99 in 10.0 mi Variable 3.5 mph - N/A   Light Drizzle
2:28 PM 75.2 °F 64.4 °F 69% 29.99 in 10.0 mi North 4.6 mph - N/A   Light Drizzle
2:33 PM 73.4 °F 64.4 °F 73% 29.99 in 10.0 mi Calm Calm - N/A   Light Drizzle
2:55 PM 71.4 °F 63.9 °F 77% 29.99 in 6.0 mi SE 5.8 mph - 0.01 in Rain Light Rain
3:21 PM 71.6 °F 66.2 °F 83% 29.98 in 9.0 mi ENE 3.5 mph - N/A Rain Light Rain
3:29 PM 71.6 °F 66.2 °F 83% 29.97 in 10.0 mi Calm Calm - N/A   Mostly Cloudy
3:55 PM 72.0 °F 65.8 °F 81% 29.98 in 10.0 mi SSE 4.6 mph - 0.07 in   Partly Cloudy
4:55 PM 72.9 °F 63.5 °F 72% 29.99 in 10.0 mi Calm Calm - N/A   Overcast
5:55 PM 71.8 °F 64.6 °F 78% 30.00 in 10.0 mi ENE 3.5 mph - N/A   Partly Cloudy
6:21 PM 71.6 °F 64.4 °F 78% 30.02 in 10.0 mi NNW 4.6 mph - N/A   Mostly Cloudy
6:54 PM 69.8 °F 64.4 °F 83% 30.01 in 10.0 mi Calm Calm - N/A   Scattered Clouds
6:55 PM 70.2 °F 64.9 °F 83% 30.01 in 10.0 mi Calm Calm - N/A   Scattered Clouds
7:20 PM 69.8 °F 64.4 °F 83% 30.02 in 10.0 mi Calm Calm - N/A   Mostly Cloudy
7:55 PM 68.4 °F 65.5 °F 90% 30.03 in 10.0 mi Calm Calm - N/A   Mostly Cloudy
7:57 PM 68.0 °F 64.4 °F 88% 30.03 in 10.0 mi Calm Calm - N/A   Scattered Clouds
8:55 PM 67.1 °F 64.2 °F 90% 30.02 in 10.0 mi Calm Calm - N/A   Clear
9:55 PM 64.2 °F 62.2 °F 93% 30.03 in 9.0 mi Calm Calm - N/A   Clear
10:55 PM 63.9 °F 61.9 °F 93% 30.02 in 10.0 mi Calm Calm - N/A   Clear
11:55 PM 62.4 °F 60.6 °F 94% 30.01 in 6.0 mi Calm Calm - N/A   Clear